Whitefield, NH

12:56 AM EDT on June 27, 2017 (GMT -0400)
Mount Washington Regional

Weather History for KHIE - January, 2013

Change the Weather History Date:

Thursday, January 31, 2013

  Actual Average Record
Temperature  
Mean Temperature 40 °F -  
Max Temperature 57 °F 25 °F 57 °F (2013)
Min Temperature 23 °F 1 °F -22 °F (1999)
Degree Days  
Heating Degree Days 24    
Moisture  
Dew Point 32 °F    
Average Humidity 74    
Maximum Humidity 97    
Minimum Humidity 42    
Precipitation  
Precipitation 0.70 in - - ()
Sea Level Pressure  
Sea Level Pressure 29.10 in    
Wind  
Wind Speed 8 mph (West)    
Max Wind Speed 28 mph    
Max Gust Speed 39 mph    
Visibility 7 miles    
Events Fog , Rain    
Averages and records for this station are not official NWS values.
T = Trace of Precipitation, MM = Missing Value Source: NWS Daily Summary

Daily Weather History Graph

Daily Weather History Graph

Search for Another Location

Airport or City:

Trip Planner

Search our weather history database for the weather conditions in past years. The results will help you decide how hot, cold, wet, or windy it might be!

Date:

Astronomy

Jan. 31, 2013 Rise Set
Actual Time 7:05 AM EST 4:54 PM EST
Civil Twilight 6:34 AM EST 5:25 PM EST
Nautical Twilight 5:59 AM EST 6:00 PM EST
Astronomical Twilight 5:25 AM EST 6:34 PM EST
Moon 10:07 PM EST (1/31) 8:50 AM EST (1/31)
Length of Visible Light 10h 51m
Length of Day
9h 49m
Waning Gibbous, 80% of the Moon is Illuminated
Jan 31
Waning Gibbous
Feb 3
Last Quarter
Feb 10
New
Feb 17
First Quarter
Feb 25
Full

Hourly Weather History & Observations

Time (EST) Temp. Windchill Dew Point Humidity Pressure Visibility Wind Dir Wind Speed Gust Speed Precip Events Conditions
12:28 AM 37.4 °F - 35.6 °F 93% 29.30 in 0.5 mi Calm Calm - 0.00 in Fog Fog
12:52 AM 37.9 °F - 37.0 °F 97% 29.29 in 0.5 mi Calm Calm - 0.01 in Fog , Rain Light Rain
1:42 AM 41.0 °F 38.0 °F 39.2 °F 93% 29.22 in 1.0 mi West 4.6 mph - 0.01 in Rain Light Rain
1:52 AM 42.1 °F 37.7 °F 41.0 °F 96% 29.24 in 0.8 mi West 6.9 mph - 0.02 in Rain Light Rain
2:52 AM 41.0 °F - 39.0 °F 93% 29.16 in 0.5 mi Calm Calm - 0.07 in Fog , Rain Light Rain
3:52 AM 43.0 °F 41.3 °F 42.1 °F 97% 29.05 in 1.0 mi Variable 3.5 mph - 0.07 in Rain Light Rain
4:07 AM 51.8 °F - 48.2 °F 88% 29.02 in 2.0 mi Variable 4.6 mph - 0.01 in Rain Light Rain
4:14 AM 53.6 °F - 50.0 °F 88% 29.01 in 10.0 mi Variable 5.8 mph - 0.02 in Rain Light Rain
4:52 AM 57.9 °F - 51.1 °F 78% 28.93 in 10.0 mi SW 9.2 mph 27.6 mph 0.03 in Rain Light Rain
5:52 AM 57.9 °F - 52.0 °F 81% 28.88 in 8.0 mi WSW 8.1 mph 21.9 mph 0.05 in Rain Light Rain
6:52 AM 53.1 °F - 51.1 °F 93% 28.88 in 6.0 mi West 5.8 mph - 0.20 in Rain Rain
7:52 AM 53.1 °F - 48.9 °F 86% 28.81 in 10.0 mi Variable 3.5 mph - 0.05 in Rain Light Rain
8:52 AM 54.0 °F - 48.0 °F 80% 28.81 in 8.0 mi Variable 6.9 mph - 0.01 in Rain Light Rain
9:13 AM 50.0 °F - 46.4 °F 87% 28.87 in 1.8 mi WNW 27.6 mph 35.7 mph 0.07 in Rain Light Rain
9:22 AM 44.6 °F 36.6 °F 39.2 °F 81% 28.89 in 1.5 mi West 19.6 mph 35.7 mph 0.10 in Rain Rain
9:31 AM 42.8 °F 35.8 °F 39.2 °F 87% 28.89 in 3.0 mi West 13.8 mph 27.6 mph 0.11 in Rain Light Rain
9:52 AM 43.0 °F 35.4 °F 39.0 °F 86% 28.95 in 10.0 mi WSW 16.1 mph 25.3 mph 0.12 in Rain Light Rain
10:36 AM 41.0 °F 34.3 °F 35.6 °F 81% 28.96 in 9.0 mi WSW 11.5 mph 20.7 mph 0.04 in Rain Light Rain
10:52 AM 39.0 °F 30.3 °F 35.1 °F 86% 28.99 in 9.0 mi West 16.1 mph 23.0 mph 0.05 in Rain Light Rain
11:33 AM 37.4 °F 30.3 °F 33.8 °F 87% 28.98 in 10.0 mi WSW 10.4 mph 18.4 mph 0.02 in   Overcast
11:52 AM 37.9 °F 30.5 °F 32.0 °F 79% 29.02 in 10.0 mi SW 11.5 mph 24.2 mph 0.02 in Rain Light Rain
12:52 PM 37.0 °F 29.3 °F 27.0 °F 67% 29.06 in 10.0 mi West 11.5 mph 24.2 mph 0.00 in   Overcast
1:52 PM 37.0 °F 27.7 °F 24.1 °F 59% 29.07 in 10.0 mi West 16.1 mph 23.0 mph N/A   Mostly Cloudy
2:52 PM 35.1 °F 24.5 °F 18.0 °F 50% 29.14 in 10.0 mi SW 18.4 mph 32.2 mph N/A   Overcast
3:52 PM 33.1 °F 21.9 °F 14.0 °F 46% 29.18 in 10.0 mi WSW 18.4 mph 29.9 mph N/A   Overcast
4:52 PM 32.0 °F 20.5 °F 12.9 °F 45% 29.21 in 10.0 mi WSW 18.4 mph 27.6 mph N/A   Overcast
5:52 PM 30.9 °F 21.7 °F 10.9 °F 43% 29.25 in 10.0 mi WSW 11.5 mph 27.6 mph N/A   Overcast
6:52 PM 30.0 °F 17.5 °F 12.0 °F 47% 29.29 in 10.0 mi West 19.6 mph 26.5 mph N/A   Overcast
7:52 PM 27.0 °F 15.2 °F 18.0 °F 69% 29.34 in 10.0 mi West 15.0 mph 23.0 mph N/A   Overcast
8:52 PM 27.0 °F 12.8 °F 9.0 °F 47% 29.36 in 10.0 mi West 21.9 mph 39.1 mph N/A   Mostly Cloudy
9:52 PM 25.0 °F 9.2 °F 5.0 °F 43% 29.40 in 10.0 mi West 25.3 mph 36.8 mph N/A   Overcast
10:52 PM 24.1 °F 10.1 °F 3.9 °F 42% 29.42 in 10.0 mi West 18.4 mph 35.7 mph N/A   Overcast
11:52 PM 23.0 °F 10.6 °F 3.9 °F 44% 29.44 in 10.0 mi WSW 13.8 mph 21.9 mph N/A   Overcast